START_TIME,STEP,MOV.,M34,t_acc.,L5,t_acc.,L18,t_acc.,L14,t_acc.
1979-07-11 18:00:25.050 ,0,1,0.,12.0,0.,12.0,0.,12.0,0.,12.0
1979-07-11 18:00:37.050 ,0,1,1.,12.0,0.,12.0,0.,12.0,0.,12.0
1979-07-11 18:00:49.050 ,3,1,0.,12.0,0.,12.0,0.,12.0,0.,12.0
1979-07-11 18:01:01.050 ,3,1,0.,12.0,0.,12.0,0.,12.0,0.,12.0
1979-07-11 18:01:13.040 ,7,1,0.,12.0,0.,12.0,0.,12.0,0.,12.0
1979-07-11 18:01:25.050 ,7,1,0.,12.0,0.,12.0,0.,12.0,0.,12.0
1979-07-11 18:01:37.050 ,4,1,0.,12.0,0.,12.0,0.,12.0,0.,12.0
1979-07-11 18:01:49.050 ,4,1,1.,12.0,0.,12.0,0.,12.0,0.,12.0
1979-07-11 18:02:01.050 ,0,1,0.,12.0,0.,12.0,0.,12.0,0.,12.0
1979-07-11 18:02:13.050 ,0,1,0.,12.0,0.,12.0,0.,12.0,0.,12.0
1979-07-11 18:02:25.040 ,3,1,0.,12.0,0.,12.0,0.,12.0,0.,12.0
1979-07-11 18:02:37.050 ,3,1,2.,12.0,0.,12.0,0.,12.0,0.,12.0
1979-07-11 18:02:49.040 ,7,1,0.,12.0,0.,12.0,0.,12.0,0.,12.0
1979-07-11 18:03:01.050 ,7,1,0.,12.0,0.,12.0,0.,12.0,0.,12.0
1979-07-11 18:03:13.040 ,4,1,1.,12.0,0.,12.0,0.,12.0,0.,12.0
1979-07-11 18:03:25.050 ,4,1,1.,12.0,0.,12.0,0.,12.0,0.,12.0
1979-07-11 18:03:37.040 ,0,1,2.,12.0,0.,12.0,0.,12.0,0.,12.0
1979-07-11 18:03:49.050 ,0,1,0.,12.0,0.,12.0,0.,12.0,0.,12.0
1979-07-11 18:04:01.040 ,3,1,0.,12.0,0.,12.0,0.,12.0,0.,12.0
1979-07-11 18:04:13.050 ,3,1,0.,12.0,0.,12.0,0.,12.0,0.,12.0
1979-07-11 18:04:25.050 ,7,1,2.,12.0,0.,12.0,0.,12.0,0.,12.0
1979-07-11 18:04:37.050 ,7,1,1.,12.0,0.,12.0,0.,12.0,0.,12.0
1979-07-11 18:04:49.050 ,4,1,0.,12.0,0.,12.0,0.,12.0,0.,12.0
1979-07-11 18:05:01.050 ,4,1,0.,12.0,0.,12.0,0.,12.0,0.,12.0
1979-07-11 18:05:13.050 ,0,1,0.,12.0,0.,12.0,0.,12.0,0.,12.0
1979-07-11 18:05:25.050 ,0,1,0.,12.0,0.,12.0,0.,12.0,0.,12.0
1979-07-11 18:05:37.050 ,0,0,1.,12.0,0.,12.0,0.,12.0,0.,12.0
1979-07-11 18:05:49.050 ,0,0,0.,12.0,0.,12.0,0.,12.0,0.,12.0
1979-07-11 18:06:01.050 ,0,0,1.,12.0,0.,12.0,0.,12.0,0.,12.0
1979-07-11 18:06:13.050 ,0,0,0.,12.0,0.,12.0,0.,12.0,0.,12.0
1979-07-11 18:06:25.050 ,5,1,0.,12.0,0.,12.0,0.,12.0,0.,12.0
1979-07-11 18:06:37.050 ,5,1,0.,12.0,0.,12.0,0.,12.0,0.,12.0
1979-07-11 18:06:49.050 ,5,0,0.,12.0,0.,12.0,0.,12.0,0.,12.0
1979-07-11 18:07:01.050 ,5,0,1.,12.0,0.,12.0,0.,12.0,0.,12.0
1979-07-11 18:07:13.050 ,4,1,0.,12.0,0.,12.0,0.,12.0,0.,12.0
1979-07-11 18:07:25.050 ,4,1,0.,12.0,0.,12.0,0.,12.0,0.,12.0
1979-07-11 18:07:37.050 ,4,0,0.,12.0,0.,12.0,0.,12.0,0.,12.0
1979-07-11 18:07:49.050 ,4,0,1.,12.0,0.,12.0,0.,12.0,0.,12.0
1979-07-11 18:08:01.050 ,0,0,0.,12.0,0.,12.0,0.,12.0,0.,12.0
1979-07-11 18:08:13.050 ,0,0,1.,12.0,0.,12.0,0.,12.0,0.,12.0
1979-07-11 18:08:25.050 ,0,0,0.,12.0,0.,12.0,0.,12.0,0.,12.0
1979-07-11 18:08:37.040 ,0,0,1.,12.0,0.,12.0,0.,12.0,0.,12.0
1979-07-11 18:09:00.450 ,0,0,,0,,0,,0,,0
1979-07-11 18:09:12.450 ,0,0,1.,12.0,0.,12.0,0.,12.0,0.,12.0
1979-07-11 18:09:13.040 ,0,0,1.,12.0,0.,12.0,0.,12.0,0.,12.0
1979-07-11 18:09:25.040 ,0,0,0.,12.0,0.,12.0,0.,12.0,0.,12.0
1979-07-11 18:09:37.040 ,1,1,0.,12.0,0.,12.0,0.,12.0,0.,12.0
1979-07-11 18:09:49.040 ,1,1,0.,12.0,0.,12.0,0.,12.0,0.,12.0
1979-07-11 18:10:01.040 ,1,0,1.,12.0,0.,12.0,0.,12.0,0.,12.0
1979-07-11 18:10:13.040 ,1,0,1.,12.0,0.,12.0,0.,12.0,0.,12.0
1979-07-11 18:10:25.040 ,0,1,0.,12.0,0.,12.0,0.,12.0,0.,12.0
1979-07-11 18:10:37.040 ,0,1,2.,12.0,0.,12.0,0.,12.0,0.,12.0
1979-07-11 18:10:49.040 ,0,0,0.,12.0,0.,12.0,0.,12.0,0.,12.0
1979-07-11 18:11:01.040 ,0,0,0.,12.0,0.,12.0,0.,12.0,0.,12.0
1979-07-11 18:11:13.040 ,0,1,0.,12.0,0.,12.0,0.,12.0,0.,12.0
1979-07-11 18:11:25.040 ,0,1,1.,12.0,0.,12.0,0.,12.0,0.,12.0
1979-07-11 18:11:37.040 ,0,0,1.,12.0,0.,12.0,0.,12.0,0.,12.0
1979-07-11 18:11:49.040 ,0,0,0.,12.0,0.,12.0,0.,12.0,0.,12.0
1979-07-11 18:12:01.040 ,1,1,0.,12.0,0.,12.0,0.,12.0,0.,12.0
1979-07-11 18:12:13.040 ,1,1,1.,12.0,0.,12.0,0.,12.0,0.,12.0
1979-07-11 18:12:25.040 ,1,0,2.,12.0,0.,12.0,0.,12.0,0.,12.0
1979-07-11 18:12:37.040 ,1,0,0.,12.0,0.,12.0,0.,12.0,0.,12.0
1979-07-11 18:12:49.040 ,2,1,0.,12.0,0.,12.0,0.,12.0,0.,12.0
1979-07-11 18:13:01.040 ,2,1,0.,12.0,0.,12.0,0.,12.0,0.,12.0
1979-07-11 18:13:13.040 ,2,0,0.,12.0,0.,12.0,0.,12.0,0.,12.0
1979-07-11 18:13:25.040 ,2,0,1.,12.0,0.,12.0,0.,12.0,0.,12.0
1979-07-11 18:13:37.040 ,3,1,3.,12.0,0.,12.0,0.,12.0,0.,12.0
1979-07-11 18:13:49.040 ,3,1,0.,12.0,0.,12.0,0.,12.0,0.,12.0
1979-07-11 18:14:01.040 ,3,0,1.,12.0,0.,12.0,0.,12.0,0.,12.0
1979-07-11 18:14:13.040 ,3,0,2.,12.0,0.,12.0,0.,12.0,0.,12.0
1979-07-11 18:14:25.040 ,4,1,2.,12.0,0.,12.0,0.,12.0,0.,12.0
1979-07-11 18:14:37.040 ,4,1,1.,12.0,0.,12.0,0.,12.0,0.,12.0
1979-07-11 18:14:49.040 ,4,0,1.,12.0,0.,12.0,0.,12.0,0.,12.0
1979-07-11 18:15:01.040 ,4,0,1.,12.0,0.,12.0,0.,12.0,0.,12.0
1979-07-11 18:15:13.040 ,5,1,1.,12.0,0.,12.0,0.,12.0,0.,12.0
1979-07-11 18:15:25.040 ,5,1,0.,12.0,0.,12.0,0.,12.0,0.,12.0
1979-07-11 18:15:37.040 ,5,0,2.,12.0,0.,12.0,0.,12.0,0.,12.0
1979-07-11 18:15:49.040 ,5,0,2.,12.0,0.,12.0,0.,12.0,0.,12.0
1979-07-11 18:16:01.040 ,6,1,0.,12.0,0.,12.0,0.,12.0,0.,12.0
1979-07-11 18:16:13.040 ,6,1,1.,12.0,0.,12.0,0.,12.0,0.,12.0
1979-07-11 18:16:25.040 ,6,0,1.,12.0,0.,12.0,0.,12.0,0.,12.0
1979-07-11 18:16:37.040 ,6,0,0.,12.0,0.,12.0,0.,12.0,0.,12.0
1979-07-11 18:16:49.040 ,7,1,0.,12.0,0.,12.0,0.,12.0,0.,12.0
1979-07-11 18:17:01.040 ,7,1,0.,12.0,0.,12.0,0.,12.0,0.,12.0
1979-07-11 18:17:13.040 ,7,0,0.,12.0,0.,12.0,0.,12.0,0.,12.0
1979-07-11 18:17:25.040 ,7,0,0.,12.0,0.,12.0,0.,12.0,0.,12.0
1979-07-11 18:17:37.040 ,7,1,0.,12.0,0.,12.0,0.,12.0,0.,12.0
1979-07-11 18:17:49.040 ,7,1,0.,12.0,0.,12.0,0.,12.0,0.,12.0
1979-07-11 18:18:01.040 ,7,0,0.,12.0,0.,12.0,0.,12.0,0.,12.0
1979-07-11 18:18:13.040 ,7,0,0.,12.0,0.,12.0,0.,12.0,0.,12.0
1979-07-11 18:18:25.040 ,6,1,0.,12.0,0.,12.0,0.,12.0,0.,12.0
1979-07-11 18:18:37.040 ,6,1,0.,12.0,0.,12.0,0.,12.0,0.,12.0
1979-07-11 18:18:49.040 ,6,0,2.,12.0,0.,12.0,0.,12.0,0.,12.0
1979-07-11 18:19:01.040 ,6,0,0.,12.0,0.,12.0,0.,12.0,0.,12.0
1979-07-11 18:19:13.040 ,5,1,1.,12.0,0.,12.0,0.,12.0,0.,12.0
1979-07-11 18:19:25.040 ,5,1,1.,12.0,0.,12.0,0.,12.0,0.,12.0
1979-07-11 18:19:37.040 ,5,0,0.,12.0,0.,12.0,0.,12.0,0.,12.0
1979-07-11 18:19:49.040 ,5,0,1.,12.0,0.,12.0,0.,12.0,0.,12.0
1979-07-11 18:20:01.040 ,4,1,1.,12.0,0.,12.0,0.,12.0,0.,12.0
1979-07-11 18:20:13.040 ,4,1,1.,12.0,0.,12.0,0.,12.0,0.,12.0
1979-07-11 18:20:25.040 ,4,0,0.,12.0,0.,12.0,0.,12.0,0.,12.0
1979-07-11 18:20:37.040 ,4,0,1.,12.0,0.,12.0,0.,12.0,0.,12.0
1979-07-11 18:20:49.040 ,3,1,0.,12.0,0.,12.0,0.,12.0,0.,12.0
1979-07-11 18:21:01.040 ,3,1,0.,12.0,0.,12.0,0.,12.0,0.,12.0
1979-07-11 18:21:13.040 ,3,0,2.,12.0,0.,12.0,0.,12.0,0.,12.0
1979-07-11 18:21:25.040 ,3,0,1.,12.0,0.,12.0,0.,12.0,0.,12.0
1979-07-11 18:21:37.040 ,2,1,1.,12.0,0.,12.0,0.,12.0,0.,12.0
1979-07-11 18:21:49.040 ,2,1,0.,12.0,0.,12.0,0.,12.0,0.,12.0
1979-07-11 18:22:01.040 ,2,0,0.,12.0,0.,12.0,0.,12.0,0.,12.0
1979-07-11 18:22:13.040 ,2,0,1.,12.0,0.,12.0,0.,12.0,0.,12.0
1979-07-11 18:22:25.040 ,1,1,1.,12.0,0.,12.0,0.,12.0,0.,12.0
1979-07-11 18:22:37.040 ,1,1,0.,12.0,0.,12.0,0.,12.0,0.,12.0
1979-07-11 18:22:49.040 ,1,0,3.,12.0,0.,12.0,0.,12.0,0.,12.0
1979-07-11 18:23:01.040 ,1,0,0.,12.0,0.,12.0,0.,12.0,0.,12.0
1979-07-11 18:23:13.040 ,0,1,0.,12.0,0.,12.0,0.,12.0,0.,12.0
1979-07-11 18:23:25.040 ,0,1,0.,12.0,0.,12.0,0.,12.0,0.,12.0
1979-07-11 18:23:37.040 ,0,0,1.,12.0,0.,12.0,0.,12.0,0.,12.0
1979-07-11 18:23:49.040 ,0,0,3.,12.0,0.,12.0,0.,12.0,0.,12.0
1979-07-11 18:24:01.040 ,0,1,1.,12.0,0.,12.0,0.,12.0,0.,12.0
1979-07-11 18:24:13.040 ,0,1,0.,12.0,0.,12.0,0.,12.0,0.,12.0
1979-07-11 18:24:25.040 ,0,0,0.,12.0,0.,12.0,0.,12.0,0.,12.0
1979-07-11 18:24:37.040 ,0,0,0.,12.0,0.,12.0,0.,12.0,0.,12.0
1979-07-11 18:24:49.040 ,1,1,1.,12.0,0.,12.0,0.,12.0,0.,12.0
1979-07-11 18:25:01.040 ,1,1,0.,12.0,0.,12.0,0.,12.0,0.,12.0
1979-07-11 18:25:13.040 ,1,0,1.,12.0,0.,12.0,0.,12.0,0.,12.0
1979-07-11 18:25:25.040 ,1,0,1.,12.0,0.,12.0,0.,12.0,0.,12.0
1979-07-11 18:25:37.040 ,2,1,3.,12.0,0.,12.0,0.,12.0,0.,12.0
1979-07-11 18:25:49.040 ,2,1,2.,12.0,0.,12.0,0.,12.0,0.,12.0
1979-07-11 18:26:01.040 ,2,0,5.,12.0,0.,12.0,0.,12.0,0.,12.0
1979-07-11 18:26:13.040 ,2,0,2.,12.0,0.,12.0,0.,12.0,0.,12.0
1979-07-11 18:26:25.040 ,3,1,1.,12.0,0.,12.0,0.,12.0,0.,12.0
1979-07-11 18:26:37.040 ,3,1,1.,12.0,0.,12.0,0.,12.0,0.,12.0
1979-07-11 18:26:49.040 ,3,0,2.,12.0,0.,12.0,0.,12.0,0.,12.0
1979-07-11 18:27:01.040 ,3,0,2.,12.0,0.,12.0,0.,12.0,0.,12.0
1979-07-11 18:27:13.040 ,4,1,0.,12.0,0.,12.0,0.,12.0,0.,12.0
1979-07-11 18:27:25.040 ,4,1,1.,12.0,0.,12.0,0.,12.0,0.,12.0
1979-07-11 18:27:37.040 ,4,0,1.,12.0,0.,12.0,0.,12.0,0.,12.0
1979-07-11 18:27:49.040 ,4,0,2.,12.0,0.,12.0,0.,12.0,0.,12.0
1979-07-11 18:28:01.040 ,0,0,2.,12.0,0.,12.0,0.,12.0,0.,12.0
1979-07-11 18:28:13.040 ,0,0,,0,,0,,0,,0
1979-07-11 18:28:25.040 ,0,0,,0,,0,,0,,0
1979-07-11 18:28:37.040 ,0,0,,0,,0,,0,,0
1979-07-11 18:28:25.040 ,5,0,2.,12.0,0.,12.0,0.,12.0,0.,12.0
1979-07-11 18:28:37.040 ,5,0,2.,12.0,0.,12.0,0.,12.0,0.,12.0
1979-07-11 18:28:49.040 ,6,1,2.,12.0,0.,12.0,0.,12.0,0.,12.0
1979-07-11 18:29:01.040 ,6,1,2.,12.0,0.,12.0,0.,12.0,0.,12.0
1979-07-11 18:29:13.040 ,6,0,1.,12.0,0.,12.0,0.,12.0,0.,12.0
1979-07-11 18:29:25.040 ,6,0,2.,12.0,0.,12.0,0.,12.0,0.,12.0
1979-07-11 18:29:37.040 ,7,1,1.,12.0,0.,12.0,0.,12.0,0.,12.0
1979-07-11 18:29:49.040 ,7,1,0.,12.0,0.,12.0,0.,12.0,0.,12.0
1979-07-11 18:30:01.040 ,7,0,0.,12.0,0.,12.0,0.,12.0,0.,12.0
1979-07-11 18:30:13.040 ,7,0,0.,12.0,0.,12.0,0.,12.0,0.,12.0
1979-07-11 18:30:25.040 ,7,1,0.,12.0,0.,12.0,0.,12.0,0.,12.0
1979-07-11 18:30:37.040 ,7,1,0.,12.0,0.,12.0,0.,12.0,0.,12.0
1979-07-11 18:30:49.040 ,7,0,0.,12.0,0.,12.0,0.,12.0,0.,12.0
1979-07-11 18:31:01.040 ,7,0,0.,12.0,0.,12.0,0.,12.0,0.,12.0
1979-07-11 18:31:13.040 ,6,1,0.,12.0,0.,12.0,0.,12.0,0.,12.0
1979-07-11 18:31:25.040 ,6,1,1.,12.0,0.,12.0,0.,12.0,0.,12.0
1979-07-11 18:31:37.040 ,6,0,2.,12.0,0.,12.0,0.,12.0,0.,12.0
1979-07-11 18:31:49.040 ,6,0,1.,12.0,0.,12.0,0.,12.0,0.,12.0
1979-07-11 18:32:01.040 ,5,1,1.,12.0,0.,12.0,0.,12.0,0.,12.0
1979-07-11 18:32:13.040 ,5,1,2.,12.0,0.,12.0,0.,12.0,0.,12.0
1979-07-11 18:32:25.040 ,5,0,1.,12.0,0.,12.0,0.,12.0,0.,12.0
1979-07-11 18:32:37.040 ,5,0,3.,12.0,0.,12.0,0.,12.0,0.,12.0
1979-07-11 18:32:49.040 ,4,1,1.,12.0,0.,12.0,0.,12.0,0.,12.0
1979-07-11 18:33:01.040 ,4,1,1.,12.0,0.,12.0,0.,12.0,0.,12.0
1979-07-11 18:33:13.040 ,4,0,1.,12.0,0.,12.0,0.,12.0,0.,12.0
1979-07-11 18:33:25.040 ,4,0,0.,12.0,0.,12.0,0.,12.0,0.,12.0
1979-07-11 18:33:37.040 ,3,1,2.,12.0,0.,12.0,0.,12.0,0.,12.0
1979-07-11 18:33:49.040 ,3,1,0.,12.0,0.,12.0,0.,12.0,0.,12.0
1979-07-11 18:34:01.040 ,3,0,0.,12.0,0.,12.0,0.,12.0,0.,12.0
1979-07-11 18:34:13.040 ,3,0,1.,12.0,0.,12.0,0.,12.0,0.,12.0
1979-07-11 18:34:25.040 ,2,1,3.,12.0,0.,12.0,0.,12.0,0.,12.0
1979-07-11 18:34:37.040 ,2,1,0.,12.0,0.,12.0,0.,12.0,0.,12.0
1979-07-11 18:34:49.040 ,2,0,1.,12.0,0.,12.0,0.,12.0,0.,12.0
1979-07-11 18:35:01.040 ,2,0,0.,12.0,0.,12.0,0.,12.0,0.,12.0
1979-07-11 18:35:13.040 ,1,1,0.,12.0,0.,12.0,0.,12.0,0.,12.0
1979-07-11 18:35:25.040 ,1,1,0.,12.0,0.,12.0,0.,12.0,0.,12.0
1979-07-11 18:35:37.040 ,1,0,1.,12.0,0.,12.0,0.,12.0,0.,12.0
1979-07-11 18:35:49.040 ,1,0,1.,12.0,0.,12.0,0.,12.0,0.,12.0
1979-07-11 18:36:01.040 ,0,1,0.,12.0,0.,12.0,0.,12.0,0.,12.0
1979-07-11 18:36:13.040 ,0,1,1.,12.0,0.,12.0,0.,12.0,0.,12.0
1979-07-11 18:36:25.040 ,0,0,1.,12.0,0.,12.0,0.,12.0,0.,12.0
1979-07-11 18:36:37.040 ,0,0,0.,12.0,0.,12.0,0.,12.0,0.,12.0
1979-07-11 18:36:49.040 ,0,1,0.,12.0,0.,12.0,0.,12.0,0.,12.0
1979-07-11 18:37:01.040 ,0,1,3.,12.0,0.,12.0,0.,12.0,0.,12.0
1979-07-11 18:37:13.040 ,0,0,1.,12.0,0.,12.0,0.,12.0,0.,12.0
1979-07-11 18:37:25.040 ,0,0,0.,12.0,0.,12.0,0.,12.0,0.,12.0
1979-07-11 18:37:37.040 ,1,1,1.,12.0,0.,12.0,0.,12.0,0.,12.0
1979-07-11 18:37:49.040 ,1,1,0.,12.0,0.,12.0,0.,12.0,0.,12.0
1979-07-11 18:38:01.040 ,1,0,0.,12.0,0.,12.0,0.,12.0,0.,12.0
1979-07-11 18:38:13.040 ,1,0,0.,12.0,0.,12.0,0.,12.0,0.,12.0
1979-07-11 18:38:25.040 ,2,1,0.,12.0,0.,12.0,0.,12.0,0.,12.0
1979-07-11 18:38:37.040 ,2,1,0.,12.0,0.,12.0,0.,12.0,0.,12.0
1979-07-11 18:38:49.040 ,2,0,0.,12.0,0.,12.0,0.,12.0,0.,12.0
1979-07-11 18:39:01.040 ,2,0,1.,12.0,0.,12.0,0.,12.0,0.,12.0
1979-07-11 18:39:13.040 ,3,1,1.,12.0,0.,12.0,0.,12.0,0.,12.0
1979-07-11 18:39:25.040 ,3,1,0.,12.0,0.,12.0,0.,12.0,0.,12.0
1979-07-11 18:39:37.040 ,3,0,2.,12.0,0.,12.0,0.,12.0,0.,12.0
1979-07-11 18:39:49.040 ,3,0,0.,12.0,0.,12.0,0.,12.0,0.,12.0
1979-07-11 18:40:01.040 ,4,1,0.,12.0,0.,12.0,0.,12.0,0.,12.0
1979-07-11 18:40:13.040 ,4,1,1.,12.0,0.,12.0,0.,12.0,0.,12.0
1979-07-11 18:40:25.040 ,4,0,1.,12.0,0.,12.0,0.,12.0,0.,12.0
1979-07-11 18:40:37.040 ,4,0,1.,12.0,0.,12.0,0.,12.0,0.,12.0
1979-07-11 18:40:49.040 ,5,1,2.,12.0,0.,12.0,0.,12.0,0.,12.0
1979-07-11 18:41:01.040 ,5,1,4.,12.0,0.,12.0,0.,12.0,0.,12.0
1979-07-11 18:41:13.040 ,5,0,1.,12.0,0.,12.0,0.,12.0,0.,12.0
1979-07-11 18:41:25.040 ,5,0,0.,12.0,0.,12.0,0.,12.0,0.,12.0
1979-07-11 18:41:37.040 ,6,1,3.,12.0,0.,12.0,0.,12.0,0.,12.0
1979-07-11 18:41:49.040 ,6,1,1.,12.0,0.,12.0,0.,12.0,0.,12.0
1979-07-11 18:42:01.040 ,6,0,0.,12.0,0.,12.0,0.,12.0,0.,12.0
1979-07-11 18:42:13.040 ,6,0,0.,12.0,0.,12.0,0.,12.0,0.,12.0
1979-07-11 18:42:25.040 ,7,0,0.,12.0,0.,12.0,0.,12.0,0.,12.0
1979-07-11 18:42:37.040 ,7,0,1.,12.0,0.,12.0,0.,12.0,0.,12.0
1979-07-11 18:42:49.040 ,7,0,0.,12.0,0.,12.0,0.,12.0,0.,12.0
1979-07-11 18:43:01.040 ,7,0,0.,12.0,0.,12.0,0.,12.0,0.,12.0
1979-07-11 18:43:13.040 ,4,1,0.,12.0,0.,12.0,0.,12.0,0.,12.0
1979-07-11 18:43:25.040 ,4,1,0.,12.0,0.,12.0,0.,12.0,0.,12.0
1979-07-11 18:43:37.040 ,0,1,1.,12.0,0.,12.0,0.,12.0,0.,12.0
1979-07-11 18:43:49.040 ,0,1,1.,12.0,0.,12.0,0.,12.0,0.,12.0
1979-07-11 18:44:01.040 ,3,1,2.,12.0,0.,12.0,0.,12.0,0.,12.0
1979-07-11 18:44:13.040 ,3,1,0.,12.0,0.,12.0,0.,12.0,0.,12.0
1979-07-11 18:44:25.040 ,7,1,0.,12.0,0.,12.0,0.,12.0,0.,12.0
1979-07-11 18:44:37.040 ,7,1,0.,12.0,0.,12.0,0.,12.0,0.,12.0
1979-07-11 18:44:49.040 ,4,1,0.,12.0,0.,12.0,0.,12.0,0.,12.0
1979-07-11 18:45:01.040 ,4,1,0.,12.0,0.,12.0,0.,12.0,0.,12.0
1979-07-11 18:45:13.040 ,0,1,0.,12.0,0.,12.0,0.,12.0,0.,12.0
1979-07-11 18:45:25.040 ,0,1,0.,12.0,0.,12.0,0.,12.0,0.,12.0
1979-07-11 18:45:37.040 ,3,1,0.,12.0,0.,12.0,0.,12.0,0.,12.0
1979-07-11 18:45:49.040 ,3,1,0.,12.0,0.,12.0,0.,12.0,0.,12.0
1979-07-11 18:46:01.040 ,7,1,0.,12.0,0.,12.0,0.,12.0,0.,12.0
1979-07-11 18:46:13.040 ,7,1,3.,12.0,0.,12.0,0.,12.0,0.,12.0
1979-07-11 18:46:25.040 ,4,1,1.,12.0,0.,12.0,0.,12.0,0.,12.0
1979-07-11 18:46:37.040 ,4,1,1.,12.0,0.,12.0,0.,12.0,0.,12.0
1979-07-11 18:46:49.040 ,0,1,4.,12.0,0.,12.0,0.,12.0,0.,12.0
1979-07-11 18:47:01.040 ,0,1,0.,12.0,0.,12.0,0.,12.0,0.,12.0
1979-07-11 18:47:13.040 ,3,1,0.,12.0,0.,12.0,0.,12.0,0.,12.0
1979-07-11 18:47:25.040 ,3,1,2.,12.0,0.,12.0,0.,12.0,0.,12.0
1979-07-11 18:47:37.040 ,7,1,4.,12.0,0.,12.0,0.,12.0,0.,12.0
1979-07-11 18:47:49.040 ,7,1,6.,12.0,0.,12.0,0.,12.0,0.,12.0
1979-07-11 18:48:01.040 ,4,1,0.,12.0,0.,12.0,0.,12.0,0.,12.0
1979-07-11 18:48:13.040 ,4,1,6.,12.0,0.,12.0,0.,12.0,0.,12.0
1979-07-11 18:48:25.040 ,0,1,11.,12.0,0.,12.0,0.,12.0,0.,12.0
1979-07-11 18:48:37.040 ,0,1,3.,12.0,0.,12.0,0.,12.0,0.,12.0
1979-07-11 18:48:49.040 ,3,1,5.,12.0,0.,12.0,0.,12.0,0.,12.0
1979-07-11 18:49:01.040 ,3,1,1.,12.0,0.,12.0,0.,12.0,0.,12.0
1979-07-11 18:49:13.040 ,7,1,5.,12.0,0.,12.0,0.,12.0,0.,12.0
1979-07-11 18:49:25.040 ,7,1,7.,12.0,0.,12.0,0.,12.0,0.,12.0
1979-07-11 18:49:37.040 ,4,1,1.,12.0,0.,12.0,0.,12.0,0.,12.0
1979-07-11 18:49:49.040 ,4,1,10.,12.0,0.,12.0,0.,12.0,0.,12.0
1979-07-11 18:50:01.040 ,0,1,4.,12.0,0.,12.0,0.,12.0,0.,12.0
1979-07-11 18:50:13.040 ,0,1,6.,12.0,0.,12.0,0.,12.0,0.,12.0
1979-07-11 18:50:25.040 ,3,1,3.,12.0,0.,12.0,0.,12.0,0.,12.0
1979-07-11 18:50:37.040 ,3,1,6.,12.0,0.,12.0,0.,12.0,0.,12.0
1979-07-11 18:50:49.040 ,7,1,3.,12.0,0.,12.0,0.,12.0,0.,12.0
1979-07-11 18:51:01.040 ,7,1,5.,12.0,0.,12.0,0.,12.0,0.,12.0
1979-07-11 18:51:13.040 ,4,1,2.,12.0,0.,12.0,0.,12.0,0.,12.0
1979-07-11 18:51:25.040 ,4,1,6.,12.0,0.,12.0,0.,12.0,0.,12.0
1979-07-11 18:51:37.040 ,0,1,3.,12.0,0.,12.0,0.,12.0,0.,12.0
1979-07-11 18:51:49.040 ,0,1,3.,12.0,0.,12.0,0.,12.0,0.,12.0
1979-07-11 18:52:01.040 ,3,1,4.,12.0,0.,12.0,0.,12.0,0.,12.0
1979-07-11 18:52:13.040 ,3,1,6.,12.0,0.,12.0,0.,12.0,0.,12.0
1979-07-11 18:52:25.040 ,7,1,3.,12.0,0.,12.0,0.,12.0,0.,12.0
1979-07-11 18:52:37.040 ,7,1,4.,12.0,0.,12.0,0.,12.0,0.,12.0
1979-07-11 18:52:49.040 ,4,1,1.,12.0,0.,12.0,0.,12.0,0.,12.0
1979-07-11 18:53:01.040 ,4,1,6.,12.0,0.,12.0,0.,12.0,0.,12.0
1979-07-11 18:53:13.040 ,0,1,4.,12.0,0.,12.0,0.,12.0,0.,12.0
1979-07-11 18:53:25.040 ,0,1,6.,12.0,0.,12.0,0.,12.0,0.,12.0
1979-07-11 18:53:37.040 ,0,0,4.,12.0,0.,12.0,0.,12.0,0.,12.0
1979-07-11 18:53:49.040 ,0,0,8.,12.0,0.,12.0,0.,12.0,0.,12.0
1979-07-11 18:54:01.040 ,0,0,8.,12.0,0.,12.0,0.,12.0,0.,12.0
1979-07-11 18:54:13.040 ,0,0,2.,12.0,0.,12.0,0.,12.0,0.,12.0
1979-07-11 18:54:25.040 ,5,1,1.,12.0,0.,12.0,0.,12.0,0.,12.0
1979-07-11 18:54:37.040 ,5,1,7.,12.0,0.,12.0,0.,12.0,0.,12.0
1979-07-11 18:54:49.040 ,5,0,5.,12.0,0.,12.0,0.,12.0,0.,12.0
1979-07-11 18:55:01.040 ,5,0,5.,12.0,0.,12.0,0.,12.0,0.,12.0
1979-07-11 18:55:13.040 ,4,1,4.,12.0,0.,12.0,0.,12.0,0.,12.0
1979-07-11 18:55:25.040 ,4,1,3.,12.0,0.,12.0,0.,12.0,0.,12.0
1979-07-11 18:55:37.040 ,4,0,8.,12.0,0.,12.0,0.,12.0,0.,12.0
1979-07-11 18:55:49.040 ,4,0,5.,12.0,0.,12.0,0.,12.0,0.,12.0
1979-07-11 18:56:01.040 ,3,1,4.,12.0,0.,12.0,0.,12.0,0.,12.0
1979-07-11 18:56:13.040 ,3,1,6.,12.0,0.,12.0,0.,12.0,0.,12.0
1979-07-11 18:56:25.040 ,3,0,1.,12.0,0.,12.0,0.,12.0,0.,12.0
1979-07-11 18:56:37.040 ,3,0,6.,12.0,0.,12.0,0.,12.0,0.,12.0
1979-07-11 18:56:49.040 ,2,1,7.,12.0,0.,12.0,0.,12.0,0.,12.0
1979-07-11 18:57:01.040 ,2,1,6.,12.0,0.,12.0,0.,12.0,0.,12.0
1979-07-11 18:57:13.040 ,2,0,3.,12.0,0.,12.0,0.,12.0,0.,12.0
1979-07-11 18:57:25.040 ,2,0,3.,12.0,0.,12.0,0.,12.0,0.,12.0
1979-07-11 18:58:25.040 ,0,0,2.,12.0,0.,12.0,0.,12.0,0.,12.0
1979-07-11 18:58:37.040 ,0,0,5.,12.0,0.,12.0,0.,12.0,0.,12.0
1979-07-11 18:58:49.040 ,0,0,5.,12.0,0.,12.0,0.,12.0,0.,12.0
1979-07-11 18:59:01.040 ,0,0,2.,12.0,0.,12.0,0.,12.0,0.,12.0
1979-07-11 18:58:49.040 ,0,0,5.,12.0,0.,12.0,0.,12.0,0.,12.0
1979-07-11 18:59:01.040 ,0,0,2.,12.0,0.,12.0,0.,12.0,0.,12.0
1979-07-11 18:59:13.040 ,0,1,3.,12.0,0.,12.0,0.,12.0,0.,12.0
1979-07-11 18:59:25.040 ,0,1,6.,12.0,0.,12.0,0.,12.0,0.,12.0
1979-07-11 18:59:37.040 ,0,0,1.,12.0,0.,12.0,0.,12.0,0.,12.0
1979-07-11 18:59:49.040 ,0,0,6.,12.0,0.,12.0,0.,12.0,0.,12.0
1979-07-11 19:00:01.040 ,1,1,6.,12.0,0.,12.0,0.,12.0,0.,12.0
1979-07-11 19:00:13.040 ,1,1,5.,12.0,0.,12.0,0.,12.0,0.,12.0
1979-07-11 19:00:25.040 ,1,0,5.,12.0,0.,12.0,0.,12.0,0.,12.0
1979-07-11 19:00:37.040 ,1,0,5.,12.0,0.,12.0,0.,12.0,0.,12.0
1979-07-11 19:00:49.040 ,2,1,1.,12.0,0.,12.0,0.,12.0,0.,12.0
1979-07-11 19:01:01.040 ,2,1,2.,12.0,0.,12.0,0.,12.0,0.,12.0
1979-07-11 19:01:13.040 ,2,0,7.,12.0,0.,12.0,0.,12.0,0.,12.0
1979-07-11 19:01:25.040 ,2,0,1.,12.0,0.,12.0,0.,12.0,0.,12.0
1979-07-11 19:01:37.040 ,3,1,10.,12.0,0.,12.0,0.,12.0,0.,12.0
1979-07-11 19:01:49.040 ,3,1,5.,12.0,0.,12.0,0.,12.0,0.,12.0
1979-07-11 19:02:01.040 ,3,0,8.,12.0,0.,12.0,0.,12.0,0.,12.0
1979-07-11 19:02:13.040 ,3,0,14.,12.0,0.,12.0,0.,12.0,0.,12.0
1979-07-11 19:02:25.040 ,4,1,18.,12.0,0.,12.0,0.,12.0,0.,12.0
1979-07-11 19:02:37.040 ,4,1,15.,12.0,0.,12.0,0.,12.0,0.,12.0
1979-07-11 19:02:49.040 ,4,0,9.,12.0,0.,12.0,0.,12.0,0.,12.0
1979-07-11 19:03:01.040 ,4,0,9.,12.0,0.,12.0,0.,12.0,0.,12.0
1979-07-11 19:03:13.040 ,5,1,14.,12.0,0.,12.0,0.,12.0,0.,12.0
1979-07-11 19:03:25.040 ,5,1,9.,12.0,0.,12.0,0.,12.0,0.,12.0
1979-07-11 19:03:37.040 ,5,0,7.,12.0,0.,12.0,0.,12.0,0.,12.0
1979-07-11 19:03:49.040 ,5,0,8.,12.0,0.,12.0,0.,12.0,0.,12.0
1979-07-11 19:04:01.040 ,6,1,9.,12.0,0.,12.0,0.,12.0,0.,12.0
1979-07-11 19:04:13.040 ,6,1,9.,12.0,0.,12.0,0.,12.0,0.,12.0
1979-07-11 19:04:25.040 ,6,0,7.,12.0,0.,12.0,0.,12.0,0.,12.0
1979-07-11 19:04:37.040 ,6,0,7.,12.0,0.,12.0,0.,12.0,0.,12.0
1979-07-11 19:04:49.040 ,7,1,5.,12.0,0.,12.0,0.,12.0,0.,12.0
1979-07-11 19:05:01.040 ,7,1,4.,12.0,0.,12.0,0.,12.0,0.,12.0
1979-07-11 19:05:13.040 ,7,0,0.,12.0,0.,12.0,0.,12.0,0.,12.0
1979-07-11 19:05:25.040 ,7,0,0.,12.0,0.,12.0,0.,12.0,0.,12.0
1979-07-11 19:05:37.040 ,7,1,0.,12.0,0.,12.0,0.,12.0,0.,12.0
1979-07-11 19:05:49.040 ,7,1,0.,12.0,0.,12.0,0.,12.0,0.,12.0
1979-07-11 19:06:01.040 ,7,0,0.,12.0,0.,12.0,0.,12.0,0.,12.0
1979-07-11 19:06:13.040 ,7,0,0.,12.0,0.,12.0,0.,12.0,0.,12.0
1979-07-11 19:06:25.040 ,6,1,0.,12.0,0.,12.0,0.,12.0,0.,12.0
1979-07-11 19:06:37.040 ,6,1,2.,12.0,0.,12.0,0.,12.0,0.,12.0
1979-07-11 19:06:49.040 ,6,0,5.,12.0,0.,12.0,0.,12.0,0.,12.0
1979-07-11 19:07:01.040 ,6,0,5.,12.0,0.,12.0,0.,12.0,0.,12.0
1979-07-11 19:07:13.040 ,5,1,4.,12.0,0.,12.0,0.,12.0,0.,12.0
1979-07-11 19:07:25.040 ,5,1,3.,12.0,0.,12.0,0.,12.0,0.,12.0
1979-07-11 19:07:37.040 ,5,0,7.,12.0,0.,12.0,0.,12.0,0.,12.0
1979-07-11 19:07:49.040 ,5,0,1.,12.0,0.,12.0,0.,12.0,0.,12.0
1979-07-11 19:08:49.040 ,0,0,16.,12.0,0.,12.0,0.,12.0,0.,12.0
1979-07-11 19:09:01.040 ,0,0,16.,12.0,0.,12.0,0.,12.0,0.,12.0
1979-07-11 19:09:13.040 ,0,0,17.,12.0,0.,12.0,0.,12.0,0.,12.0
1979-07-11 19:09:25.040 ,0,0,14.,12.0,0.,12.0,0.,12.0,0.,12.0
1979-07-11 19:09:37.120 ,2,1,22.,12.0,0.,12.0,0.,12.0,0.,12.0
1979-07-11 19:09:49.120 ,2,1,12.,12.0,0.,12.0,0.,12.0,0.,12.0
1979-07-11 19:10:01.120 ,2,0,9.,12.0,0.,12.0,0.,12.0,0.,12.0
1979-07-11 19:10:13.120 ,2,0,7.,12.0,0.,12.0,0.,12.0,0.,12.0
1979-07-11 19:10:25.120 ,1,1,9.,12.0,0.,12.0,0.,12.0,0.,12.0
1979-07-11 19:10:37.120 ,1,1,8.,12.0,0.,12.0,0.,12.0,0.,12.0
1979-07-11 19:10:49.120 ,1,0,5.,12.0,0.,12.0,0.,12.0,0.,12.0
1979-07-11 19:11:01.120 ,1,0,5.,12.0,0.,12.0,0.,12.0,0.,12.0
1979-07-11 19:11:13.120 ,0,1,7.,12.0,0.,12.0,0.,12.0,0.,12.0
1979-07-11 19:11:25.120 ,0,1,10.,12.0,0.,12.0,0.,12.0,0.,12.0
1979-07-11 19:11:37.120 ,0,0,5.,12.0,0.,12.0,0.,12.0,0.,12.0
1979-07-11 19:11:49.120 ,0,0,15.,12.0,0.,12.0,0.,12.0,0.,12.0
1979-07-11 19:12:01.120 ,0,1,10.,12.0,0.,12.0,0.,12.0,0.,12.0
1979-07-11 19:12:13.120 ,0,1,4.,12.0,0.,12.0,0.,12.0,0.,12.0
1979-07-11 19:12:25.120 ,0,0,9.,12.0,0.,12.0,0.,12.0,0.,12.0
1979-07-11 19:12:37.120 ,0,0,9.,12.0,0.,12.0,0.,12.0,0.,12.0
1979-07-11 19:12:49.120 ,1,1,9.,12.0,0.,12.0,0.,12.0,0.,12.0
1979-07-11 19:13:01.120 ,1,1,10.,12.0,0.,12.0,0.,12.0,0.,12.0
1979-07-11 19:13:13.120 ,1,0,8.,12.0,0.,12.0,0.,12.0,0.,12.0
1979-07-11 19:13:25.120 ,1,0,7.,12.0,0.,12.0,0.,12.0,0.,12.0
1979-07-11 19:13:37.120 ,2,1,7.,12.0,0.,12.0,0.,12.0,0.,12.0
1979-07-11 19:13:49.120 ,2,1,4.,12.0,0.,12.0,0.,12.0,0.,12.0
1979-07-11 19:14:01.120 ,2,0,10.,12.0,0.,12.0,0.,12.0,0.,12.0
1979-07-11 19:14:13.120 ,2,0,6.,12.0,0.,12.0,0.,12.0,0.,12.0
1979-07-11 19:14:25.120 ,3,1,11.,12.0,0.,12.0,0.,12.0,0.,12.0
1979-07-11 19:14:37.120 ,3,1,9.,12.0,0.,12.0,0.,12.0,0.,12.0
1979-07-11 19:14:49.120 ,3,0,23.,12.0,0.,12.0,0.,12.0,0.,12.0
1979-07-11 19:15:01.120 ,3,0,9.,12.0,0.,12.0,0.,12.0,0.,12.0
1979-07-11 19:15:13.120 ,4,1,19.,12.0,0.,12.0,0.,12.0,0.,12.0
1979-07-11 19:15:25.120 ,4,1,14.,12.0,0.,12.0,0.,12.0,0.,12.0
1979-07-11 19:15:37.120 ,4,0,12.,12.0,0.,12.0,0.,12.0,0.,12.0
1979-07-11 19:15:49.120 ,4,0,13.,12.0,0.,12.0,0.,12.0,0.,12.0
1979-07-11 19:16:01.120 ,5,1,12.,12.0,0.,12.0,0.,12.0,0.,12.0
1979-07-11 19:16:13.120 ,5,1,8.,12.0,0.,12.0,0.,12.0,0.,12.0
1979-07-11 19:16:25.120 ,5,0,9.,12.0,0.,12.0,0.,12.0,0.,12.0
1979-07-11 19:16:37.120 ,5,0,12.,12.0,0.,12.0,0.,12.0,0.,12.0
1979-07-11 19:16:49.120 ,6,1,9.,12.0,0.,12.0,0.,12.0,0.,12.0
1979-07-11 19:17:01.120 ,6,1,9.,12.0,0.,12.0,0.,12.0,0.,12.0
1979-07-11 19:17:13.120 ,6,0,6.,12.0,0.,12.0,0.,12.0,0.,12.0
1979-07-11 19:17:25.120 ,6,0,5.,12.0,0.,12.0,0.,12.0,0.,12.0
1979-07-11 19:17:37.120 ,7,1,2.,12.0,0.,12.0,0.,12.0,0.,12.0
1979-07-11 19:17:49.120 ,7,1,1.,12.0,0.,12.0,0.,12.0,0.,12.0
1979-07-11 19:18:01.120 ,7,0,0.,12.0,0.,12.0,0.,12.0,0.,12.0
1979-07-11 19:18:13.120 ,7,0,0.,12.0,0.,12.0,0.,12.0,0.,12.0